Probability
0 0 0 0 0 0 0 0 0 0 0 0 0 0 0 0 0 0 0 0 0 0 0 0 0 0 0 0 0 0 0 0 0 0 0 0 0 0 0 0 0 0 0 0
0 0 0 0 0 0 0 0 0 0 0 0 0 0 0 0 0 0 0 0 0 0 0 0 0 0 0 0 0 0 0 0 0 0 0 0 0 0 0 0 0 0 0 0
0 0 0 0 0 0 0 0 0 0 0 0 0 0 0 0 0 0 0 0 0 0 0 0 0 0 0 0 0 0 0 0 0 0 0 0 0 0 0 0 0 0 0 0
0 0 0 0 0 0 0 0 0 0 0 0 0 0 0 0 0 0 0 0 0 0 0 0 0 0 0 0 0 0 0 0 0 0 0 0 0 0 0 0 0 0 0 0
0 0 0 0 0 0 0 0 0 0 0 0 0 0 0 0 0 0 0 0 0 0 0 0 0 0 0 0 0 0 0 0 0 0 0 0 0 0 0 0 0 0 0 0
0 0 0 0 0 0 0 0 0 0 0 0 0 0 0 0 0 0 0 0 0 0 0 0 0 0 0 0 0 0 0 0 0 0 0 0 0 0 0 0 0 0 0 0
0 0 0 0 0 0 0 0 0 0 0 0 0 0 0 0 0 0 0 0 0 0 0 0 0 0 0 0 0 0 0 0 0 0 0 0 0 0 0 0 0 0 0 0
0 0 0 0 0 0 0 0 0 0 0 0 0 0 0 0 0 0 0 0 0 0 0 0 0 0 0 0 0 0 0 0 0 0 0 0 0 0 0 0 0 0 0 0
0 0 0 0 0 0 0 0 0 0 0 0 0 0 0 0 0 0 0 0 0 0 0 0 0 0 0 0 0 0 0 0 0 0 0 0 0 0 0 0 0 0 0 0
0 0 0 0 0 0 0 0 0 0 0 0 0 0 0 0 0 0 0 0 0 0 0 0 0 0 0 0 0 0 0 0 0 0 0 0 0 0 0 0 0 0 0 0
0 0 0 0 0 0 0 0 0 0 0 0 0 0 0 0 0 0 0 0 0 0 0 0 0 0 0 0 0 0 0 0 0 0 0 0 0 0 0 0 0 0 0 0
0 0 0 0 0 0 0 0 0 0 0 0 0 0 0 0 0 0 0 0 0 0 0 0 0 0 0 0 0 0 0 0 0 0 0 0 0 0 0 0 0 0 0 0
0 0 0 0 0 0 0 0 0 0 0 0 0 0 0 0 0 0 0 0 0 0 0 0 0 0 0 0 0 0 0 0 0 0 0 0 0 0 0 0 0 0 0 0
0 0 0 0 0 0 0 0 0 0 0 0 0 0 0 0 0 0 0 0 0 0 0 0 0 0 0 0 0 0 0 0 0 0 0 0 0 0 0 0 0 0 0 0
0 0 0 0 0 0 0 0 0 0 0 0 0 0 0 0 0 0 0 0 0 0 0 0 0 0 0 0 0 0 0 0 0 0 0 0 0 0 0 0 0 0 0 0
0 0 0 0 0 0 0 0 0 0 0 0 0 0 0 0 0 0 0 0 0 0 0 0 0 0 0 0 0 0 0 0 0 0 0 0 0 0 0 0 0 0 0 0
0 0 0 0 0 0 0 0 0 0 0 0 0 0 0 0 0 0 0 0 0 0 0 0 0 0 0 0 0 0 0 0 0 0 0 0 0 0 0 0 0 0 0 0
0 0 0 0 0 0 0 0 0 0 0 0 0 0 0 0 0 0 0 0 0 0 0 0 0 0 0 0 0 0 0 0 0 0 0 0 0 0 0 0 0 0 0 0
0 0 0 0 0 0 0 0 0 0 0 0 0 0 0 0 0 0 0 0 0 0 0 0 0 0 0 0 0 0 0 0 0 0 0 0 0 0 0 0 0 0 0 0
0 0 0 0 0 0 0 0 0 0 0 0 0 0 0 0 0 0 0 0 0 0 0 0 0 0 0 0 0 0 0 0 0 0 0 0 0 0 0 0 0 0 0 0
0 0 0 0 0 0 0 0 0 0 0 0 0 0 0 0 0 0 0 0 0 0 0 0 0 0 0 0 0 0 0 0 0 0 0 0 0 0 0 0 0 0 0 0
0 0 0 0 0 0 0 0 0 0 0 0 0 0 0 0 0 0 0 0 0 0 0 0 0 0 0 0 0 0 0 0 0 0 0 0 0 0 0 0 0 0 0 0
0 0 0 0 0 0 0 0 0 0 0 0 0 0 0 0 0 0 0 0 0 0 0 0 0 0 0 0 0 0 0 0 0 0 0 0 0 0 0 0 0 0 0 0
0 0 0 0 0 0 0 0 0 0 0 0 0 0 0 0 0 0 0 0 0 0 0 0 0 0 0 0 0 0 0 0 0 0 0 0 0 0 0 0 0 0 0 0
0 0 0 0 0 0 0 0 0 0 0 0 0 0 0 0 0 0 0 0 0 0 0 0 0 0 0 0 0 0 0 0 0 0 0 0 0 0 0 0 0 0 0 0
0 0 0 0 0 0 0 0 0 0 0 0 0 0 0 0 0 0 0 0 0 0 0 0 0 0 0 0 0 0 0 0 0 0 0 0 0 0 0 0 0 0 0 0
0 0 0 0 0 0 0 0 0 0 0 0 0 0 0 0 0 0 0 0 0 0 0 0 0 0 0 0 0 0 0 0 0 0 0 0 0 0 0 0 0 0 0 0
Height
5587 5588 5588 5589 5591 5590 5589 5589 5589 5590 5590 5591 5587 5583 5580 5576 5573 5569 5565 5560 5555 5549 5544 5538 5531 5526 5520 5514 5509 5503 5498 5494 5489 5484 5479 5474 5470 5467 5463 5460 5458 5456 5455 5456
5575 5577 5576 5576 5578 5579 5579 5578 5577 5577 5579 5580 5575 5571 5568 5565 5561 5557 5553 5548 5543 5538 5532 5526 5520 5514 5509 5503 5498 5492 5488 5483 5478 5473 5469 5464 5460 5456 5453 5449 5447 5445 5445 5445
5562 5564 5562 5565 5570 5569 5568 5568 5567 5565 5568 5566 5563 5560 5557 5554 5550 5545 5541 5536 5531 5526 5520 5514 5508 5502 5497 5492 5487 5481 5476 5471 5466 5462 5458 5453 5449 5445 5442 5440 5438 5436 5436 5437
5548 5550 5550 5558 5559 5558 5556 5557 5556 5555 5555 5554 5551 5548 5545 5542 5537 5533 5529 5525 5520 5514 5509 5503 5497 5491 5486 5481 5476 5471 5466 5461 5456 5451 5447 5443 5439 5435 5433 5431 5430 5429 5428 5429
5537 5536 5538 5545 5548 5546 5544 5545 5545 5543 5543 5541 5538 5536 5535 5530 5526 5521 5517 5513 5508 5503 5498 5492 5486 5481 5475 5470 5465 5461 5456 5451 5447 5442 5438 5434 5430 5427 5424 5423 5422 5422 5422 5422
5526 5525 5527 5535 5536 5534 5533 5533 5535 5531 5530 5528 5526 5524 5524 5519 5514 5510 5506 5502 5497 5492 5487 5481 5476 5470 5465 5460 5456 5451 5447 5442 5438 5433 5430 5426 5422 5419 5416 5415 5414 5415 5415 5416
5515 5514 5516 5523 5523 5522 5522 5523 5521 5520 5518 5516 5514 5512 5510 5507 5503 5499 5495 5491 5486 5481 5476 5471 5466 5460 5456 5451 5446 5442 5438 5434 5430 5426 5422 5418 5415 5412 5409 5408 5408 5408 5409 5410
5504 5504 5509 5511 5511 5511 5510 5509 5508 5507 5506 5504 5503 5500 5498 5495 5491 5488 5484 5480 5475 5471 5466 5461 5455 5451 5446 5442 5438 5434 5430 5426 5422 5419 5415 5412 5408 5406 5404 5402 5402 5403 5404 5405
5494 5497 5498 5498 5498 5498 5498 5497 5496 5495 5495 5493 5491 5489 5487 5484 5481 5477 5473 5469 5465 5461 5456 5451 5446 5442 5438 5435 5431 5427 5423 5419 5415 5412 5409 5405 5403 5401 5399 5398 5398 5398 5399 5401
5483 5486 5486 5485 5485 5485 5485 5485 5485 5484 5483 5481 5479 5477 5475 5473 5470 5466 5463 5459 5455 5451 5446 5442 5438 5434 5430 5426 5423 5420 5416 5413 5409 5406 5403 5400 5397 5396 5395 5394 5394 5395 5396 5397
5472 5474 5473 5474 5474 5474 5474 5474 5473 5473 5472 5470 5468 5466 5464 5461 5458 5455 5452 5449 5445 5441 5437 5433 5430 5426 5423 5419 5416 5413 5410 5407 5403 5400 5397 5394 5392 5391 5390 5390 5390 5391 5392 5394
5461 5463 5462 5463 5463 5463 5463 5463 5462 5461 5460 5459 5457 5455 5453 5450 5447 5445 5442 5439 5435 5432 5429 5425 5422 5419 5416 5412 5409 5406 5404 5401 5398 5395 5392 5390 5388 5387 5386 5386 5387 5388 5389 5391
5450 5451 5450 5451 5451 5451 5451 5451 5451 5450 5449 5448 5446 5444 5442 5440 5437 5435 5432 5429 5426 5423 5420 5417 5414 5412 5409 5406 5403 5400 5397 5395 5393 5391 5389 5386 5385 5383 5383 5383 5383 5384 5386 5388
5440 5440 5440 5440 5440 5440 5440 5440 5439 5438 5437 5436 5435 5433 5432 5430 5427 5425 5422 5420 5417 5415 5412 5410 5407 5405 5402 5399 5397 5394 5392 5390 5388 5386 5384 5382 5381 5380 5380 5380 5381 5382 5384 5386
5429 5429 5429 5430 5430 5429 5429 5429 5428 5428 5427 5426 5424 5423 5422 5420 5418 5416 5413 5411 5409 5406 5404 5402 5400 5397 5394 5392 5390 5388 5386 5384 5383 5381 5380 5379 5378 5377 5377 5377 5379 5380 5382 5385
5419 5419 5420 5420 5420 5419 5419 5418 5418 5417 5416 5415 5414 5413 5412 5411 5409 5407 5405 5402 5400 5399 5397 5395 5393 5390 5388 5386 5384 5382 5381 5380 5378 5377 5376 5375 5374 5374 5374 5375 5377 5379 5382 5385
5410 5410 5410 5410 5410 5409 5409 5408 5408 5407 5406 5406 5405 5404 5403 5402 5400 5398 5397 5394 5392 5391 5389 5387 5386 5384 5382 5381 5379 5377 5376 5375 5374 5373 5372 5371 5371 5371 5372 5373 5375 5378 5381 5385
5401 5401 5401 5401 5401 5400 5399 5399 5398 5397 5397 5397 5396 5395 5395 5393 5392 5391 5389 5387 5386 5384 5382 5381 5379 5378 5377 5375 5374 5373 5372 5371 5370 5369 5369 5368 5368 5369 5370 5372 5374 5377 5380 5384
5392 5392 5392 5391 5391 5390 5390 5390 5389 5389 5389 5388 5388 5387 5387 5385 5384 5383 5381 5380 5379 5377 5376 5374 5373 5372 5371 5370 5369 5369 5368 5367 5367 5366 5366 5366 5366 5368 5369 5371 5374 5376 5380 5384
5384 5384 5383 5383 5382 5382 5382 5381 5381 5380 5380 5380 5380 5379 5379 5378 5377 5376 5374 5373 5372 5371 5369 5368 5367 5366 5366 5365 5365 5364 5364 5364 5364 5363 5364 5364 5365 5366 5368 5370 5373 5376 5380 5384
5377 5376 5376 5375 5375 5374 5374 5373 5373 5373 5373 5372 5372 5372 5371 5371 5369 5368 5367 5366 5365 5364 5363 5362 5361 5361 5361 5360 5360 5360 5360 5360 5360 5361 5361 5362 5364 5365 5368 5370 5373 5376 5380 5384
5370 5369 5369 5368 5368 5367 5367 5366 5366 5365 5365 5365 5365 5364 5364 5363 5362 5361 5360 5359 5358 5357 5356 5356 5355 5355 5355 5355 5355 5355 5356 5356 5357 5358 5359 5360 5362 5364 5366 5369 5372 5376 5379 5384
5364 5363 5362 5362 5361 5361 5360 5359 5359 5358 5358 5358 5358 5357 5356 5356 5355 5354 5353 5352 5351 5350 5350 5349 5349 5349 5350 5350 5351 5351 5352 5353 5354 5355 5356 5358 5359 5362 5365 5368 5371 5375 5379 5383
5358 5357 5356 5355 5355 5354 5353 5353 5352 5352 5351 5351 5350 5350 5350 5349 5348 5347 5346 5345 5345 5344 5343 5343 5344 5344 5345 5345 5346 5347 5348 5349 5350 5352 5354 5356 5358 5360 5363 5367 5370 5374 5378 5382
5352 5351 5350 5349 5349 5348 5347 5346 5346 5345 5345 5344 5344 5344 5343 5343 5342 5341 5340 5339 5338 5338 5338 5338 5338 5339 5340 5341 5342 5343 5344 5346 5347 5349 5351 5354 5357 5359 5362 5365 5369 5373 5377 5382
5346 5346 5345 5344 5343 5342 5341 5341 5340 5340 5339 5339 5339 5338 5337 5337 5336 5335 5334 5333 5333 5332 5333 5333 5334 5335 5336 5337 5338 5339 5341 5342 5344 5347 5350 5352 5355 5358 5361 5365 5369 5373 5377 5381
5340 5340 5339 5338 5338 5337 5336 5335 5335 5335 5334 5334 5333 5333 5332 5331 5330 5329 5329 5328 5328 5328 5328 5328 5329 5330 5331 5333 5334 5336 5338 5340 5342 5344 5347 5350 5354 5357 5360 5364 5368 5372 5376 5380
Wind_Speed
45 45 46 46 44 44 45 45 46 45 44 43 44 45 47 48 49 50 51 51 52 52 52 52 51 50 49 48 47 47 46 45 44 43 43 43 42 41 42 42 41 40 41 41
47 46 47 47 46 46 45 45 46 46 45 43 44 46 47 49 50 51 51 51 52 52 52 51 51 50 48 46 45 45 45 44 43 42 42 42 41 40 40 39 38 37 37 37
48 47 48 48 44 45 46 45 45 46 45 44 45 46 47 49 50 50 51 51 51 51 51 50 50 49 47 45 44 43 43 42 41 41 41 41 39 38 37 36 33 32 32 32
47 46 48 46 43 44 45 44 45 45 44 45 46 47 48 49 49 50 50 50 50 50 49 49 48 47 46 45 44 43 41 39 39 39 39 38 36 34 34 33 31 29 29 29
45 46 47 43 41 42 44 44 43 44 45 45 46 47 47 48 49 49 49 48 49 48 48 48 47 46 44 43 43 42 40 39 38 37 36 35 34 33 32 31 29 28 27 26
43 45 46 42 41 41 43 44 41 43 44 45 46 47 46 47 48 48 48 47 47 47 47 47 46 44 43 42 41 40 39 38 37 35 34 33 32 31 28 27 26 25 25 24
44 46 46 43 43 43 44 44 44 44 45 45 45 46 46 46 47 47 47 47 46 47 46 45 44 42 40 39 38 36 36 35 34 33 31 30 29 27 26 25 24 24 22 21
44 45 44 43 44 44 45 45 45 46 45 45 45 45 45 46 46 46 46 45 45 45 44 43 41 39 37 35 34 33 33 32 32 31 30 29 27 24 22 22 22 21 20 18
43 43 42 42 44 44 44 44 45 45 44 44 44 45 46 46 46 45 45 45 44 44 43 41 39 37 35 33 32 31 31 30 29 29 28 27 26 23 20 19 18 17 17 16
41 40 40 41 42 42 42 43 43 43 43 43 44 45 45 45 44 44 43 43 42 42 40 38 36 35 33 31 30 30 28 28 27 27 26 24 23 21 19 17 16 15 15 16
39 38 40 41 41 41 41 42 42 42 42 43 44 44 44 42 42 41 40 41 40 39 37 35 33 32 31 30 28 28 27 25 24 25 24 23 21 19 17 16 14 14 15 16
39 38 40 40 41 41 41 42 42 42 42 43 43 43 42 41 40 40 39 39 38 37 35 33 32 30 29 28 27 26 25 23 22 22 21 19 17 15 15 15 15 14 14 15
39 40 41 41 41 41 41 41 41 41 41 41 41 41 40 39 39 38 37 36 36 35 34 31 30 28 27 27 27 26 24 22 21 20 19 17 15 14 14 14 15 14 14 14
39 40 40 40 39 39 39 39 39 39 39 39 38 38 38 37 36 36 35 35 34 33 32 30 28 28 27 27 26 24 23 21 20 19 18 17 14 14 13 13 13 13 13 14
37 38 38 37 37 37 38 38 38 38 37 37 37 37 36 35 35 34 34 33 32 31 30 28 27 27 26 25 24 23 21 19 18 17 17 16 14 13 12 11 11 11 12 13
35 35 34 34 34 35 35 35 35 35 35 35 35 35 34 34 33 33 33 32 30 29 28 27 26 25 24 23 21 20 19 18 16 16 15 14 13 11 10 10 10 11 13 13
34 33 33 33 34 34 34 34 33 33 32 32 32 32 32 32 31 30 30 29 27 26 26 25 24 22 21 20 19 17 16 15 15 14 14 13 12 11 10 10 11 13 14 15
32 33 33 34 33 33 33 32 31 30 30 29 30 30 30 29 29 28 27 26 25 24 24 23 22 21 20 18 16 15 14 13 13 13 13 12 11 10 10 10 10 12 15 17
29 30 30 30 30 30 30 30 30 29 29 28 28 28 28 27 26 26 26 24 23 23 22 21 20 20 18 17 15 14 13 13 12 11 10 9 8 9 9 10 11 12 14 16
26 27 27 27 28 28 28 28 27 27 27 27 26 25 25 25 26 25 24 23 22 22 21 20 19 19 18 17 15 14 14 13 12 11 10 9 8 9 9 10 10 11 14 16
24 24 24 24 24 24 25 25 24 25 25 25 25 25 25 25 24 24 23 22 22 22 21 20 19 18 17 15 14 13 13 12 11 10 9 9 9 10 10 11 12 14 16 17
22 22 22 22 22 22 22 23 23 23 23 23 24 24 23 23 22 22 22 21 21 20 19 19 18 17 15 14 14 13 12 12 11 10 9 9 10 11 11 13 14 15 16 17
21 21 21 21 22 22 22 22 23 23 23 23 22 22 21 21 21 21 20 20 20 19 18 18 17 15 14 13 13 12 12 11 11 11 10 10 11 12 13 15 16 17 17 17
20 20 20 20 20 20 20 20 20 21 21 20 20 19 19 19 19 19 19 18 18 17 16 15 14 13 13 13 12 12 12 11 11 11 11 11 12 13 14 16 17 17 17 17
18 18 18 18 18 18 18 18 18 18 18 17 17 17 17 17 18 18 17 17 16 16 15 14 13 12 12 11 11 11 11 11 11 12 12 12 13 13 14 16 17 17 17 17
19 18 18 17 17 16 16 16 16 16 15 15 15 15 16 16 16 16 16 15 14 13 13 13 12 11 11 11 10 10 10 11 11 13 14 14 15 15 15 16 17 17 17 18
18 18 17 16 15 15 15 15 15 14 14 15 15 15 15 15 15 14 14 13 12 12 12 11 11 11 11 10 10 10 11 11 12 14 15 16 16 16 16 17 18 17 17 17
Wind_Direction
262 264 267 269 269 270 273 276 278 281 283 285 285 287 289 291 294 296 297 299 300 301 302 303 303 301 300 300 300 299 299 299 298 296 297 296 293 289 286 283 279 274 269 264
261 262 264 267 269 271 272 275 278 280 282 285 285 286 288 290 293 295 297 298 300 301 302 302 303 301 300 299 300 299 299 298 296 295 295 296 293 289 286 283 280 274 269 263
263 264 265 266 269 271 273 275 277 279 283 283 284 286 289 291 293 296 297 298 300 301 302 302 303 302 300 299 300 300 300 299 297 296 295 294 292 289 286 283 280 273 266 262
264 264 264 267 267 269 272 274 276 278 280 282 284 287 290 291 293 295 297 298 300 301 302 303 303 302 301 300 300 301 301 300 299 296 296 295 293 290 285 280 277 271 266 261
264 266 267 267 269 271 273 274 276 279 280 281 284 286 289 291 293 295 297 299 300 301 302 303 303 302 301 301 301 302 301 300 300 300 297 296 295 290 286 281 275 270 265 261
264 265 268 269 270 272 274 275 277 280 282 283 286 288 290 291 294 295 297 298 299 301 302 302 303 302 302 302 302 301 301 300 300 300 299 298 295 291 286 282 276 269 263 259
263 266 268 270 272 273 275 278 279 281 282 284 287 289 291 292 294 295 296 298 299 300 301 302 301 301 302 302 302 301 301 300 300 300 301 300 297 293 286 280 275 270 263 258
263 266 270 271 271 272 274 276 279 281 284 286 287 289 291 292 294 295 296 297 299 300 301 301 301 300 302 302 302 302 302 301 300 299 299 299 297 293 285 279 273 268 261 252
265 268 270 271 271 272 274 276 278 280 283 285 287 288 290 292 293 294 296 297 298 300 300 300 300 300 301 302 302 303 303 303 301 298 297 298 295 290 286 281 273 265 255 247
268 270 271 271 271 272 273 276 278 280 283 285 287 289 291 292 292 293 294 296 298 299 300 299 298 300 302 301 301 302 303 303 300 298 297 297 295 290 284 277 270 259 251 244
269 270 270 271 271 273 275 277 278 281 283 285 287 289 290 290 290 291 293 295 297 299 299 297 297 299 302 303 301 301 302 302 299 297 297 296 294 290 282 272 266 258 248 238
268 269 270 272 272 273 274 276 277 279 281 283 285 287 289 289 288 289 291 293 295 297 296 296 296 299 300 301 302 302 301 299 298 299 300 299 294 286 278 267 258 256 246 233
269 271 273 275 275 275 274 276 277 279 281 283 285 287 288 288 288 288 290 291 293 295 295 295 296 297 298 299 300 301 299 296 296 296 297 300 294 283 271 262 258 253 240 225
269 272 273 274 274 275 275 276 277 279 281 283 284 286 287 288 288 288 290 291 292 294 294 294 295 295 296 296 298 299 298 296 294 293 294 295 291 283 270 258 251 241 227 218
270 272 273 273 274 276 277 277 278 280 281 282 284 285 286 287 287 288 290 291 292 293 293 292 293 295 296 295 295 296 295 294 293 291 292 291 288 283 268 254 241 225 216 207
270 271 273 274 276 277 278 279 279 280 280 281 283 284 285 286 287 288 290 291 292 291 292 291 292 294 294 294 294 294 294 291 291 292 291 288 285 278 262 243 226 210 203 196
269 271 273 275 277 278 279 279 279 278 278 280 281 283 285 286 286 287 289 290 290 290 290 290 290 290 291 292 293 292 292 288 287 290 291 286 279 272 258 238 213 202 197 191
270 272 274 276 276 277 277 277 276 276 277 279 280 283 285 285 284 285 287 287 288 289 289 288 288 290 289 289 288 286 287 288 285 285 285 280 271 261 247 225 205 197 191 186
273 275 276 276 276 276 277 277 276 275 277 278 279 282 283 282 282 284 286 286 287 288 287 286 287 288 287 287 283 281 284 287 288 284 280 274 260 243 225 207 197 191 186 183
275 277 277 277 277 276 276 276 276 274 274 276 278 280 280 280 281 282 284 285 286 285 284 282 283 284 284 284 280 278 278 279 281 279 272 264 248 229 216 205 196 188 182 180
277 278 277 278 277 277 277 277 275 274 275 275 276 278 279 279 280 281 282 284 285 284 282 279 278 279 278 276 276 273 271 269 269 268 263 250 231 218 210 201 191 183 179 179
280 280 279 279 278 278 277 276 276 276 275 276 277 278 279 279 280 282 284 285 284 282 279 276 275 274 270 269 269 264 260 257 256 255 252 239 221 211 203 194 185 182 181 182
281 280 279 278 278 278 278 277 277 276 275 276 277 278 278 278 279 282 284 285 283 279 277 274 272 269 266 263 261 257 254 250 245 242 238 225 211 202 196 190 185 183 181 181
280 279 280 280 280 279 278 277 277 277 276 275 275 276 276 278 281 284 285 285 281 278 276 272 269 263 260 257 254 252 249 244 238 233 225 212 198 192 188 185 183 181 180 180
282 282 282 282 280 279 278 278 278 278 278 277 276 276 276 278 282 286 287 286 281 276 271 266 261 256 253 248 245 244 242 236 229 220 209 198 190 185 183 182 180 180 182 182
283 285 286 284 281 281 280 279 279 278 278 278 278 279 281 283 285 287 288 287 282 274 266 259 253 250 247 243 239 237 233 226 218 206 197 191 188 184 182 182 180 181 183 186
283 284 283 281 281 281 281 280 278 277 279 279 280 282 284 286 287 288 286 284 279 272 263 254 248 246 244 239 234 227 221 216 207 198 193 190 188 186 185 184 182 181 182 184